Temperature
19 20 19 18 18 18 18 17 17 17 17 16 16 17 17 17 17 17 17 17 17 17 16 16 16 16 16 16 16 16 16 16 16 16 16 16 15 15 15 15 15 15 15
20 20 19 18 18 17 17 17 17 17 17 16 16 16 16 16 17 17 17 17 16 16 16 16 16 16 16 16 16 16 16 16 16 16 16 16 16 15 15 15 15 15 15
19 19 18 18 17 17 17 17 17 17 16 16 16 16 16 16 16 16 16 16 16 16 16 16 16 16 16 16 16 16 16 16 15 15 15 16 16 16 15 15 16 15 16
18 18 18 17 17 17 17 17 17 16 16 16 16 16 16 16 16 16 16 16 16 16 16 16 16 16 16 16 16 16 16 15 15 14 15 15 16 16 16 16 16 15 15
17 17 17 17 17 17 17 17 16 16 16 16 16 16 16 16 16 16 16 16 16 16 17 17 17 17 17 17 16 16 15 15 14 14 15 15 16 15 15 15 15 15 15
17 17 17 17 17 16 16 16 16 16 16 16 16 16 16 16 16 16 16 16 16 17 17 17 17 17 17 16 16 16 15 15 14 14 15 15 15 15 15 15 15 15 15
17 17 17 17 17 16 16 16 16 16 16 16 16 16 16 16 16 16 16 16 16 17 17 16 17 17 16 16 16 16 15 15 14 15 15 15 15 15 15 15 15 15 15
17 17 17 16 16 16 16 16 16 16 16 16 16 16 16 16 16 16 16 16 16 16 16 16 16 16 16 16 16 16 15 15 14 15 15 15 15 15 15 15 15 15 15
17 17 16 16 16 16 16 16 16 16 16 16 16 16 16 16 16 16 16 16 16 16 16 16 16 16 16 16 16 16 15 15 14 14 15 15 15 15 15 15 15 15 14
17 16 16 16 16 16 16 16 15 15 15 15 15 15 15 15 16 16 16 16 16 16 16 16 16 16 16 16 16 16 15 15 14 14 15 15 15 15 15 14 14 14 14
16 16 16 16 16 16 15 15 15 15 15 15 15 15 15 15 15 15 16 16 16 16 16 16 16 16 16 16 16 15 15 14 14 14 14 15 15 15 14 14 14 14 14
16 16 16 15 15 15 15 15 15 15 15 15 15 15 15 15 15 15 15 16 16 16 16 16 16 16 16 15 15 15 15 14 14 14 14 14 14 14 14 14 14 14 13
16 15 15 15 15 15 15 15 15 15 14 14 15 15 14 14 15 15 15 15 15 15 15 15 15 15 15 15 15 15 14 14 14 14 14 14 14 14 14 14 14 14 13
15 15 15 15 15 14 14 14 14 14 14 14 15 14 14 14 14 15 15 15 15 15 15 15 15 15 15 14 14 14 14 14 14 14 14 14 14 14 14 14 14 13 13
15 15 15 14 14 14 14 14 14 14 14 14 14 14 14 14 14 15 15 15 15 15 15 15 15 15 14 14 14 14 14 14 14 14 14 14 14 14 14 14 14 13 13
14 14 14 14 14 14 14 14 14 14 14 14 14 14 14 14 14 14 15 15 15 15 15 15 15 14 14 14 14 14 14 14 14 14 14 14 14 14 14 14 14 13 13
13 14 14 14 14 14 14 14 14 14 14 14 14 14 14 14 14 14 14 15 15 15 15 15 14 14 14 14 14 14 14 14 14 14 14 14 14 14 14 14 13 13 13
13 13 14 13 13 13 13 14 14 14 14 14 14 14 14 14 14 14 14 15 15 15 15 15 14 14 14 14 14 14 14 14 14 14 14 14 14 14 14 14 13 13 13
13 13 13 13 13 13 13 13 13 14 14 14 14 14 14 14 14 14 14 15 15 15 15 15 14 14 14 14 14 14 14 14 14 14 14 14 14 14 13 13 13 13 13
13 12 13 13 13 13 13 13 13 13 13 14 14 14 14 14 14 14 14 14 14 15 15 15 14 14 14 14 13 13 14 14 14 14 14 14 14 13 13 13 13 13 12
12 12 12 12 13 12 12 13 13 13 13 13 13 13 14 14 14 14 14 14 14 15 15 14 14 14 13 13 13 13 13 13 14 14 14 13 13 13 13 13 12 12 12
11 12 12 12 12 12 12 13 13 13 13 13 13 13 13 14 14 14 14 14 14 14 14 14 14 13 13 13 13 13 13 13 13 13 13 13 13 13 12 12 12 12 11
11 12 12 12 12 12 12 12 12 13 13 13 13 13 13 13 14 14 14 14 14 14 14 14 13 13 13 13 13 13 13 13 13 13 13 13 13 12 12 12 11 11 11
11 11 11 12 12 12 12 12 12 12 13 13 13 13 13 13 14 14 14 14 14 14 14 14 13 13 13 13 13 13 13 13 13 12 12 12 12 12 11 11 11 11 10
11 11 11 11 11 12 12 12 12 12 13 13 13 13 13 13 13 13 14 14 14 13 13 13 13 13 13 13 13 13 13 13 13 12 12 12 11 11 11 10 10 10 10
11 11 11 11 11 11 12 12 12 12 12 13 13 13 13 13 13 13 13 13 13 13 13 13 13 13 13 12 12 12 12 12 12 12 12 11 11 10 10 10 10 10 9
Wind_Speed
13 18 24 22 20 19 18 18 17 18 19 19 19 18 18 18 18 18 18 18 17 17 17 17 17 17 17 17 17 17 17 17 18 18 18 17 17 17 17 16 16 15 17
17 21 25 22 20 19 18 17 17 18 19 19 19 19 19 18 18 18 18 18 17 17 17 17 17 17 17 17 17 16 15 14 15 16 18 17 17 17 17 18 16 14 16
19 21 23 21 20 19 17 16 17 18 19 19 20 20 20 19 19 19 18 18 17 17 17 17 17 16 16 16 15 13 11 9 8 7 11 14 15 15 16 16 15 15 15
18 20 20 21 20 19 17 17 17 18 19 19 20 20 20 20 19 19 19 18 18 18 17 16 16 16 15 14 13 11 8 5 3 4 11 14 13 14 15 14 15 14 14
16 18 20 22 20 18 18 17 17 18 19 20 20 20 20 20 20 19 19 18 18 18 17 16 15 15 14 13 12 9 5 4 6 12 17 16 13 13 13 14 14 13 13
15 16 21 22 20 18 17 17 17 18 20 20 20 21 21 21 20 20 19 19 18 18 17 16 15 14 13 12 10 7 3 5 5 13 15 15 12 12 12 12 12 12 12
13 15 21 23 21 19 18 17 17 19 20 20 21 21 21 21 21 20 19 19 18 17 16 15 14 13 12 11 8 5 2 6 5 13 15 14 11 10 10 11 11 11 11
13 14 19 22 21 19 18 17 17 18 20 20 21 21 22 22 21 20 20 19 17 16 15 14 14 13 11 10 7 3 3 7 4 12 14 12 9 9 9 8 9 9 9
12 14 14 17 19 19 18 17 16 18 20 21 21 21 21 22 21 21 19 18 17 16 15 14 13 12 11 9 5 1 3 6 4 9 12 10 8 7 6 6 6 6 7
10 12 13 13 15 15 15 16 16 17 19 21 21 20 21 21 21 20 19 17 16 15 14 13 12 11 10 8 5 1 3 6 1 8 11 9 7 5 4 4 3 4 4
9 10 12 12 12 14 15 16 15 16 19 20 19 21 20 18 18 18 18 17 16 15 14 13 12 10 9 7 5 4 5 8 2 9 11 9 6 3 2 1 1 1 1
9 10 10 11 11 11 13 14 13 14 16 17 17 19 16 16 16 16 19 17 16 14 13 12 11 10 9 8 8 7 8 9 4 8 10 9 5 2 1 1 2 2 2
8 8 9 10 10 10 9 10 9 11 13 15 18 18 16 15 14 14 13 13 13 13 11 10 10 10 11 10 9 10 8 2 1 6 11 9 5 3 2 3 3 4 4
8 7 6 8 9 9 10 9 7 7 8 9 16 18 13 8 9 10 10 11 11 11 10 10 9 11 11 9 9 8 5 2 2 6 10 10 7 4 4 4 4 5 5
8 9 7 7 9 9 9 9 9 8 8 10 14 16 13 7 8 8 9 11 11 11 10 8 8 8 6 6 7 4 4 6 5 6 8 10 8 6 5 5 5 5 5
8 9 8 8 9 10 9 8 8 7 8 10 11 14 15 11 8 7 7 7 8 10 11 9 7 4 4 3 3 3 4 4 3 4 7 9 9 7 6 5 5 5 6
8 9 9 9 8 11 10 10 7 7 8 8 9 14 14 13 10 7 7 6 6 10 10 7 5 4 2 2 2 3 2 2 1 1 3 7 8 7 7 6 5 5 5
6 8 9 9 9 10 10 10 7 8 8 7 9 11 13 13 13 7 6 6 8 8 6 3 3 3 2 3 2 3 1 1 1 2 0 4 5 4 5 5 4 3 3
7 7 9 8 9 8 9 10 9 8 8 8 9 9 11 13 13 8 5 5 8 5 4 4 3 3 3 3 3 2 2 2 2 1 0 2 4 4 2 4 4 2 2
7 7 7 8 8 8 8 8 8 8 8 8 7 8 11 11 13 9 5 6 7 5 4 4 4 3 2 3 2 1 2 3 2 2 1 2 4 4 3 3 3 2 2
6 6 7 8 8 7 7 8 9 9 8 8 8 9 11 11 11 8 6 6 6 6 6 6 4 4 3 2 1 1 3 3 3 3 2 2 3 4 3 3 4 4 4
7 6 7 7 8 9 8 7 7 8 6 6 7 7 9 9 10 8 7 6 6 6 6 6 5 4 3 3 3 2 2 1 2 3 3 3 2 4 4 4 5 5 4
6 6 6 6 7 9 8 7 7 6 5 5 6 6 7 8 8 7 7 6 6 6 5 5 5 5 4 3 3 3 3 3 1 1 3 3 3 3 2 4 4 4 5
5 5 6 7 6 7 8 8 10 8 7 6 6 6 7 7 8 8 7 6 6 5 5 5 4 4 5 3 2 2 2 1 2 1 1 2 3 3 3 3 4 4 5
5 5 6 7 6 6 6 8 8 7 6 6 6 7 6 5 6 7 7 6 6 5 6 6 5 5 4 4 3 2 2 1 1 2 2 2 1 2 3 3 3 4 5
5 5 5 6 6 6 6 6 7 8 8 9 8 7 6 5 5 6 6 6 6 6 6 6 6 6 5 4 4 3 3 2 3 3 4 3 2 1 2 2 3 4 5
Wind_Direction
141 152 158 159 158 157 157 158 159 159 157 155 152 147 143 138 135 131 127 125 123 120 115 111 106 102 98 95 92 89 87 88 87 84 78 72 69 67 64 68 71 63 62
144 152 157 160 160 159 159 160 160 160 160 159 156 152 148 144 141 138 132 130 127 121 116 112 107 103 100 97 95 94 94 97 98 97 86 73 68 67 66 66 68 66 63
142 149 157 159 160 160 160 161 161 161 161 160 158 155 151 147 145 141 136 134 129 122 116 112 107 104 102 101 99 99 101 101 100 103 94 87 74 71 71 70 68 66 63
141 148 158 158 160 161 161 161 161 163 162 161 159 155 152 149 146 142 139 135 128 122 117 113 110 108 106 105 104 105 105 90 46 58 89 81 75 73 71 70 67 64 62
142 150 156 158 161 162 162 162 163 165 164 161 160 157 153 150 147 144 140 134 126 122 120 117 114 112 110 109 109 111 102 39 8 82 91 85 77 75 71 68 65 63 60
145 149 154 158 161 163 163 163 164 165 165 163 161 157 153 150 147 144 140 131 126 125 124 122 120 116 113 113 114 114 78 359 10 87 92 91 84 79 75 71 66 64 61
149 147 155 160 162 163 163 164 165 166 166 163 161 157 154 151 148 144 138 132 131 130 129 127 125 122 118 117 117 113 38 350 71 89 88 88 87 82 77 72 69 66 62
148 147 157 162 161 162 164 165 166 166 166 163 161 158 156 152 148 144 139 137 137 136 134 132 130 127 124 121 121 111 5 351 73 98 97 95 92 86 79 74 69 66 62
148 149 155 162 161 161 162 165 167 166 164 162 159 157 154 149 147 146 143 143 143 141 138 137 135 133 129 127 128 126 334 342 20 108 107 103 96 88 82 76 71 66 61
150 153 158 163 162 163 162 163 164 165 162 158 155 152 147 145 145 145 145 147 147 145 142 141 139 137 135 136 145 195 297 310 269 114 111 113 105 92 83 77 69 64 59
164 161 164 166 165 163 164 164 160 158 156 151 148 145 142 144 145 148 149 150 148 147 147 146 145 144 145 154 172 216 265 278 157 107 114 122 118 105 84 69 50 30 26
177 173 172 169 167 164 164 158 161 158 155 153 151 150 153 153 154 155 150 152 149 148 150 152 154 159 169 179 195 220 249 260 148 126 130 136 138 147 215 283 282 286 292
181 180 178 175 171 168 158 159 165 161 164 162 157 163 165 154 148 141 147 148 149 153 157 159 168 190 205 191 186 212 236 266 125 130 144 150 159 190 243 266 272 272 271
187 181 185 182 171 171 164 163 165 164 169 164 164 170 164 148 146 149 155 162 165 175 174 169 193 212 216 185 189 211 188 219 242 131 152 165 177 202 235 256 269 276 278
197 184 183 192 179 175 171 169 170 168 169 162 163 170 157 147 154 155 163 168 175 182 174 181 207 203 200 191 202 203 186 209 214 166 167 178 189 204 223 245 259 270 277
203 186 180 190 185 179 176 174 169 166 165 157 160 165 156 156 158 156 160 166 176 176 171 187 205 184 186 181 189 211 227 222 212 176 166 182 192 203 214 228 252 268 276
205 189 183 194 192 185 180 178 172 163 159 154 158 163 159 159 157 156 156 161 168 166 168 185 201 165 162 161 191 222 229 264 274 232 172 168 184 201 213 224 242 262 274
203 191 185 193 192 196 187 177 173 169 161 155 158 162 162 159 158 156 150 160 162 160 162 166 167 149 163 170 203 216 197 215 274 282 185 145 149 161 201 212 221 247 270
195 194 184 191 187 198 197 179 169 169 161 155 158 162 165 161 159 154 150 158 158 150 152 164 164 163 176 191 205 195 212 210 210 219 112 123 120 117 132 175 193 215 244
185 190 184 185 185 187 194 178 165 164 160 156 159 162 163 160 159 156 150 158 152 146 154 159 167 175 173 175 183 210 231 222 185 155 135 116 116 111 102 117 144 161 179
170 184 184 183 186 181 185 179 170 168 162 154 158 161 160 158 159 157 155 159 153 156 164 167 169 176 180 154 136 264 267 230 183 163 147 116 120 124 105 89 91 85 85
165 176 174 181 182 179 187 175 167 160 156 150 149 157 156 156 158 159 157 159 158 160 169 177 174 168 177 166 162 176 252 276 246 176 148 136 134 118 108 90 74 69 64
161 168 163 169 179 178 179 165 159 148 140 150 158 162 163 158 158 159 161 159 161 164 175 179 174 170 183 195 183 173 188 219 211 208 181 160 157 137 124 107 88 72 64
167 167 166 161 170 170 163 163 168 168 163 161 162 159 160 161 160 161 163 161 160 162 170 172 166 167 171 188 199 205 195 163 158 198 236 192 168 159 147 122 100 80 72
159 162 149 150 152 157 158 166 170 167 156 147 152 154 159 162 161 164 167 164 167 170 174 170 165 165 175 182 183 185 206 229 217 177 215 219 214 191 145 126 111 94 80
139 136 134 142 145 153 153 166 169 166 157 154 154 162 164 163 164 168 170 168 172 175 181 179 174 174 180 181 186 185 179 181 205 200 214 216 211 200 141 123 117 105 93
Height
1476 1480 1484 1488 1491 1494 1497 1500 1503 1506 1509 1512 1515 1518 1520 1522 1524 1526 1528 1530 1531 1533 1535 1536 1537 1538 1539 1540 1541 1542 1543 1543 1544 1544 1544 1544 1544 1544 1544 1545 1545 1544 1544
1475 1478 1483 1487 1490 1494 1497 1500 1502 1505 1508 1512 1515 1518 1520 1523 1525 1527 1529 1531 1533 1535 1536 1538 1539 1540 1541 1542 1543 1544 1545 1546 1546 1546 1547 1547 1547 1547 1547 1547 1547 1546 1546
1475 1477 1482 1486 1490 1493 1496 1499 1502 1505 1508 1511 1515 1518 1521 1523 1526 1528 1530 1532 1534 1536 1538 1539 1541 1542 1543 1544 1545 1547 1547 1548 1548 1549 1549 1549 1549 1549 1549 1549 1549 1548 1548
1475 1477 1481 1486 1489 1493 1496 1499 1502 1504 1508 1511 1514 1518 1521 1524 1526 1529 1531 1533 1535 1537 1539 1541 1542 1544 1545 1546 1547 1549 1550 1550 1551 1551 1551 1551 1551 1551 1551 1550 1550 1550 1550
1476 1478 1481 1485 1489 1492 1495 1498 1501 1504 1507 1511 1514 1517 1521 1524 1527 1529 1531 1534 1536 1538 1540 1542 1544 1545 1547 1548 1549 1550 1551 1552 1552 1553 1553 1553 1553 1553 1552 1552 1552 1552 1551
1476 1478 1481 1485 1488 1492 1495 1498 1500 1503 1507 1510 1514 1517 1520 1523 1527 1529 1532 1534 1536 1539 1541 1543 1545 1547 1548 1550 1551 1552 1553 1554 1554 1555 1554 1554 1554 1554 1554 1554 1554 1553 1553
1476 1477 1480 1484 1488 1491 1494 1497 1500 1503 1506 1510 1513 1517 1520 1523 1526 1529 1532 1535 1537 1540 1542 1544 1546 1548 1550 1551 1552 1553 1554 1555 1556 1556 1556 1556 1556 1556 1555 1555 1555 1554 1554
1475 1476 1479 1483 1487 1490 1493 1497 1500 1503 1506 1509 1513 1516 1520 1523 1526 1529 1532 1535 1538 1540 1543 1545 1547 1549 1550 1552 1553 1555 1555 1556 1557 1557 1557 1557 1557 1557 1557 1556 1556 1556 1555
1474 1476 1478 1481 1485 1489 1492 1496 1499 1502 1505 1509 1512 1516 1519 1522 1526 1529 1532 1535 1538 1541 1543 1545 1547 1549 1551 1553 1554 1555 1556 1557 1558 1558 1558 1558 1558 1558 1558 1557 1557 1557 1556
1472 1474 1477 1479 1482 1486 1491 1495 1498 1502 1505 1508 1512 1515 1519 1522 1526 1529 1532 1535 1538 1541 1543 1546 1548 1550 1552 1553 1555 1556 1557 1558 1558 1559 1559 1559 1559 1559 1558 1558 1558 1557 1557
1470 1472 1474 1477 1480 1484 1488 1493 1497 1501 1504 1507 1511 1514 1518 1521 1525 1529 1532 1535 1538 1541 1543 1546 1548 1550 1552 1554 1555 1556 1557 1558 1559 1559 1559 1559 1559 1559 1559 1558 1558 1557 1557
1466 1469 1472 1474 1477 1481 1485 1490 1495 1498 1502 1505 1509 1513 1517 1520 1524 1528 1531 1534 1538 1541 1543 1546 1548 1550 1552 1553 1555 1556 1557 1558 1559 1559 1559 1559 1559 1559 1558 1558 1558 1557 1557
1463 1465 1468 1471 1474 1478 1482 1487 1492 1496 1500 1504 1507 1512 1516 1519 1523 1526 1530 1533 1536 1540 1543 1545 1548 1550 1551 1553 1555 1556 1557 1558 1559 1559 1559 1559 1559 1558 1558 1557 1557 1557 1556
1460 1462 1464 1468 1470 1475 1479 1484 1489 1494 1498 1501 1505 1510 1514 1517 1521 1524 1528 1532 1535 1538 1541 1544 1547 1549 1551 1553 1554 1555 1556 1558 1558 1558 1558 1558 1558 1557 1557 1556 1556 1556 1555
1456 1459 1460 1464 1467 1471 1476 1481 1487 1491 1496 1499 1503 1508 1512 1515 1519 1523 1527 1530 1534 1537 1540 1543 1546 1548 1550 1552 1553 1555 1556 1556 1557 1557 1557 1557 1557 1556 1555 1555 1555 1554 1554
1452 1455 1457 1461 1464 1468 1472 1478 1484 1489 1493 1497 1501 1505 1510 1514 1518 1521 1525 1529 1533 1536 1539 1542 1545 1548 1549 1551 1552 1553 1554 1555 1556 1556 1556 1555 1555 1554 1554 1553 1553 1552 1552
1448 1450 1453 1458 1461 1465 1469 1474 1481 1486 1490 1494 1498 1503 1508 1512 1516 1520 1524 1528 1531 1535 1538 1541 1544 1546 1548 1549 1550 1552 1553 1554 1554 1554 1554 1554 1553 1553 1552 1551 1551 1550 1550
1444 1447 1450 1454 1458 1462 1466 1471 1476 1482 1487 1491 1496 1500 1505 1510 1514 1518 1522 1526 1529 1533 1536 1539 1542 1544 1546 1547 1548 1550 1550 1551 1552 1552 1553 1552 1551 1551 1550 1549 1549 1548 1548
1440 1443 1446 1450 1453 1458 1462 1468 1472 1478 1483 1488 1493 1498 1503 1508 1512 1516 1520 1524 1527 1530 1534 1537 1539 1541 1543 1545 1546 1547 1548 1549 1549 1550 1550 1550 1549 1548 1548 1547 1547 1546 1546
1437 1439 1442 1446 1449 1453 1459 1463 1469 1474 1480 1485 1490 1495 1500 1505 1509 1514 1518 1521 1524 1528 1531 1534 1536 1539 1541 1542 1544 1545 1546 1546 1547 1547 1547 1547 1547 1546 1546 1545 1544 1544 1543
1433 1436 1439 1442 1446 1450 1455 1460 1464 1470 1477 1482 1487 1492 1497 1502 1506 1511 1515 1518 1522 1525 1528 1531 1533 1536 1538 1540 1541 1542 1543 1544 1544 1544 1544 1544 1544 1543 1543 1543 1542 1541 1541
1430 1433 1436 1439 1442 1447 1452 1457 1462 1467 1474 1479 1484 1489 1494 1499 1503 1508 1511 1515 1519 1522 1525 1528 1530 1532 1535 1537 1538 1540 1541 1542 1540 1541 1541 1541 1541 1541 1540 1540 1540 1539 1538
1427 1430 1433 1436 1440 1444 1449 1454 1460 1466 1471 1477 1482 1487 1491 1496 1500 1504 1508 1512 1515 1519 1521 1524 1527 1529 1531 1533 1535 1537 1538 1538 1538 1538 1538 1538 1538 1538 1537 1537 1537 1536 1535
1426 1428 1430 1434 1438 1442 1447 1451 1456 1462 1467 1473 1478 1483 1488 1492 1497 1501 1505 1508 1511 1515 1518 1520 1523 1525 1527 1529 1532 1533 1535 1535 1536 1535 1535 1535 1535 1535 1534 1534 1533 1533 1532
1424 1427 1428 1432 1436 1440 1444 1449 1455 1460 1465 1471 1476 1480 1484 1489 1493 1497 1501 1504 1507 1511 1514 1516 1519 1521 1523 1525 1527 1528 1530 1531 1532 1532 1532 1532 1532 1531 1531 1530 1530 1529 1528
1423 1425 1428 1431 1435 1439 1444 1448 1452 1457 1463 1467 1471 1476 1481 1486 1489 1493 1497 1500 1503 1506 1509 1511 1514 1516 1518 1520 1522 1524 1525 1526 1527 1528 1528 1528 1528 1528 1527 1526 1526 1525 1524